Location: Unspecified
(0.0000°N, 0.0000°E)
Time: 11:29:27
(UTC+00:00)

Envisat - Pass Details

Date: 21 August 2019
Orbit: 764 x 766 km, 98.1° (Epoch: 08 December)

Event Time Altitude Azimuth Distance (km) Brightness Sun altitude
Rises 19:23:35 0° 190° (S) 3,229 6.2 -19.6°
Reaches altitude 10° 19:26:13 10° 202° (SSW) 2,300 5.6 -20.3°
Maximum altitude 19:30:22 26° 258° (WSW) 1,477 5.1 -21.3°
Drops below altitude 10° 19:34:31 10° 313° (NW) 2,292 6.3 -22.3°
Sets 19:37:10 0° 326° (NW) 3,214 6.9 -23.0°
